Reflectivity
-20 -20 -20 -20 -20 -20 -20 -20 -20 -20 -20 -20 -20 -20 -20 -20 -20 -20 -20 -20 -20 -20 -20 -20 -20 -20 -20 -20 -20 10 18 4 -14 -19 -20 -20 -7 -20 -20 11 -20 -20 -20 -20 -20
-20 -20 -20 -20 -20 -20 -20 -20 -20 -20 -20 -20 -20 -20 -20 -20 -20 -20 -20 -20 -20 -20 -20 -20 -20 -20 -20 -2 5 30 -20 -20 -20 -14 -18 -20 -20 29 16 47 9 -20 -20 -20 -20
-20 -20 -20 -20 -20 -20 -20 -20 -20 -20 -20 -20 -20 -20 -20 -20 -20 -20 -20 -20 -20 -20 -20 -20 -8 -8 9 47 3 -15 -20 -20 -20 -20 -20 -20 -20 -20 9 30 -5 -20 -11 -20 -20
-20 -20 -20 -20 -20 -20 -20 -20 -20 -20 -20 -20 -20 -20 -20 -20 -20 -20 -20 -20 -20 -20 -20 -9 30 25 39 -18 -16 -15 -20 -20 -20 -20 -20 -20 -20 -14 -20 -20 -11 -20 -20 -20 -20
-20 -20 -20 -20 -20 -20 -20 -20 -20 -20 -20 -20 -20 -20 -20 -20 -20 -20 -20 -20 -20 -20 -20 30 25 36 17 -14 -10 13 -19 -20 -20 -20 -20 -20 -20 -20 -20 -20 -20 -20 -20 -20 -20
-20 -20 -20 -20 -20 -20 -20 -20 -20 -20 -20 -20 -20 -20 -20 -20 -20 -20 -20 -20 -20 -20 -20 -19 -0 -18 30 12 -20 -18 -9 -5 -20 -20 -20 -20 -20 -20 -20 -20 -20 -20 -20 -20 -20
-20 -20 -20 -20 -20 -20 -20 -20 -20 -20 -20 -20 -20 -20 -20 -20 -20 -20 -20 -20 -20 -20 -20 -20 -20 -20 -2 46 1 35 29 22 -20 -20 -20 -20 -20 -20 -20 -20 -20 -20 -20 -20 -20
-17 6 -15 -8 -20 -20 -20 -20 -20 -20 -20 -20 -20 -20 -20 -20 -20 -20 -20 -20 -20 -20 -20 -20 -20 -20 -11 17 23 3 -14 7 -20 -20 -20 16 27 -19 -20 -20 -20 -20 -20 -20 -20
-13 -4 -20 -20 -20 -20 -20 -20 -20 -20 -20 -20 -20 -20 -20 -20 -20 -20 -20 -20 -20 -20 -20 -20 -20 -20 31 37 -6 24 19 16 -18 -20 -20 -6 44 -1 -20 -20 -20 -20 -20 -20 -20
11 -16 -20 -20 -20 -20 -20 -20 -20 -20 -20 -20 -20 -20 -20 -20 -20 -20 -20 -20 -20 -20 -20 -20 -20 -15 27 18 -1 -5 23 -5 -12 -19 -20 -20 -20 -20 -20 -20 -20 -20 -20 -20 -20
-20 -20 -20 -20 -20 -20 -20 -20 -20 -20 -20 -20 -20 -20 -20 -20 -20 -20 -20 -20 -20 -20 -20 -13 -9 38 30 -15 -20 -12 -6 0 -7 9 -20 -20 -20 37 -20 -20 -20 -20 -20 -20 -20
-20 -20 -20 -20 -20 -20 -15 -20 -20 -20 -20 -20 -20 -20 -20 -20 -20 -20 -20 -20 -20 -20 -20 -15 5 36 7 17 -0 -20 7 -7 -9 -20 -20 17 18 -20 34 -4 -20 -20 -20 -20 -20
-20 -20 -20 -20 -20 -8 -20 -20 -20 -20 -20 -20 -20 -20 -20 -20 -20 -20 -20 -20 -20 -20 -20 -20 -0 -18 21 4 -20 -20 21 -16 -20 -20 -19 9 -3 -20 -19 -4 -20 -20 -20 -20 -20
-20 -20 -20 -20 -15 -20 -20 -20 -20 -20 -20 -20 -20 -20 -20 -20 -20 -20 -20 -20 -20 -20 -20 -20 -6 28 3 27 -20 -20 2 -20 -20 -20 -6 22 25 11 17 -20 -18 -20 -20 -20 -20
-20 -20 -20 7 -20 -20 -20 -20 -20 -20 -20 -20 -20 -20 -20 -20 -20 -20 -20 -20 -20 -20 -20 -20 -20 -20 -11 16 -17 -20 -20 -20 -20 -20 -20 23 3 15 -13 35 32 -8 -20 -20 -20
-20 -20 -20 -20 -20 -20 -20 -20 -20 -20 -20 -20 -20 -20 -20 -20 -20 -20 -20 -20 -20 -20 -20 -20 -20 -20 -20 -20 -20 -20 -20 -20 -20 -20 -19 11 17 29 19 20 19 -12 -20 -20 -20
-20 -20 -20 -20 -20 -20 -20 -20 -20 -20 -20 -20 -20 -20 -20 -20 -20 -20 -20 -20 -20 -20 -20 -20 -20 -20 -20 -20 -20 -20 -20 -20 -20 -20 19 12 8 26 4 -6 -13 -14 -20 -20 -20
-20 -4 -20 -20 -20 -20 -20 -20 -20 -20 -20 -20 -20 -20 -20 -20 -20 -20 -20 -20 -20 -20 -20 -20 -20 -20 -20 -20 -20 -20 -20 -20 -20 -20 11 -9 11 -17 10 -20 -19 14 -7 -20 -20
-4 -20 -20 -20 -20 -20 -20 -20 -20 -20 -20 -20 -20 -20 -20 -20 -20 -20 -20 -20 -20 -20 -20 -20 -20 -20 -20 -19 -19 -20 -20 -20 -20 -20 -7 12 9 7 -3 15 -20 -20 -20 -20 -20
-20 -20 -20 -20 -20 -20 -20 -20 -20 -20 -20 -20 -20 -20 -20 -20 -20 -20 -20 -20 -20 -20 -20 -20 -20 -20 -20 -20 -20 -16 -20 -20 -20 -20 -20 -14 -2 15 31 30 -14 -20 -20 -20 -20
-20 -20 -20 -20 -20 -20 -20 -20 -20 -20 -20 -20 -20 -20 -20 -20 -20 -20 -20 -20 -20 -20 -20 -20 -20 -20 -20 -20 -20 -20 -20 -20 -20 -20 -20 -20 -14 -6 14 27 -4 8 -20 -20 -20
-20 -20 -20 -20 -20 -20 -20 -20 -20 -20 -20 -20 -20 -20 -20 -20 -20 -20 -20 -20 -20 -20 -20 -20 -20 -20 -20 -20 -20 -20 -20 -20 -20 -20 -20 -20 -20 -0 28 24 -20 15 -20 -20 -20
-20 -20 -20 -20 -20 -20 -20 -20 -20 -20 -20 -20 -20 -20 -20 -20 -20 -20 -20 -20 -20 -20 -20 -20 -20 -20 -20 -20 -20 -20 -20 -20 -20 -20 -20 -20 -20 -20 8 6 27 15 -20 -20 -20
-20 -20 -20 -20 -20 -20 -20 -20 -20 -20 -20 -20 -20 -20 -20 -20 -20 -20 -20 -20 -20 -20 -20 -20 -20 -20 -20 -20 -20 -20 -20 -20 -20 -20 -20 -20 -20 -1 -0 2 21 11 -18 -19 -20
-20 -20 -20 -20 -20 -20 -20 -20 -20 -20 -20 -20 -20 -20 -20 -20 -20 -20 -20 -20 -20 -20 -20 -20 -20 -20 -20 -20 -20 -20 -20 -20 -20 -20 -20 -20 -20 -18 16 17 4 5 -20 -20 -20
-20 -20 -20 -20 -20 -20 -20 -20 -20 -20 -20 -20 -20 -20 -20 -20 -20 -20 -20 -20 -20 -20 -20 -20 -20 -20 -20 -20 -20 -20 -20 -20 -20 -20 -20 -20 -20 -20 2 24 -0 -8 -20 -20 -20
-20 -20 -20 -20 -20 -20 -20 -20 -20 -20 -20 -20 -20 -20 -20 -20 -20 -20 -20 -20 -20 -20 -20 -20 -20 -20 -20 -20 -20 -20 -20 -20 -20 -20 -20 -20 -20 -20 -20 -4 18 -5 8 -20 -20
Wind_Speed
16 16 16 15 15 16 16 15 15 15 14 14 14 13 12 11 12 8 10 5 8 13 6 10 14 12 11 13 18 16 4 5 10 13 12 12 2 6 10 29 3 4 8 22 21
16 16 16 16 16 15 17 15 14 15 15 15 14 12 11 9 12 14 5 9 13 12 10 12 10 11 13 17 7 0 5 7 4 11 5 8 9 16 19 19 13 13 19 24 21
17 17 17 17 16 16 16 17 15 15 15 14 13 10 8 9 8 6 9 12 11 13 17 10 23 27 14 8 5 7 10 2 7 8 6 10 2 15 24 9 16 18 15 20 19
18 17 17 18 18 17 16 17 17 16 16 14 12 8 6 7 2 7 10 10 9 12 14 5 21 12 8 8 7 4 4 1 2 4 5 5 6 4 21 14 16 15 19 18 18
17 18 17 17 18 18 17 16 17 18 17 14 10 7 7 8 4 12 10 9 11 12 17 17 16 15 14 23 8 5 21 1 1 5 4 7 6 8 12 6 20 18 19 19 17
18 17 18 17 17 18 18 16 17 19 18 14 9 4 7 13 9 14 14 13 13 15 21 13 6 14 12 4 6 18 22 21 13 9 6 5 5 4 13 11 17 19 19 17 18
18 18 17 18 19 18 19 18 18 18 17 14 7 7 11 12 12 11 13 14 15 18 17 15 11 17 27 25 6 25 22 28 27 9 7 6 6 4 16 14 16 19 18 18 17
19 18 18 18 19 19 18 19 20 18 16 8 5 8 10 4 3 11 13 14 16 15 14 13 14 24 22 15 12 8 4 8 16 14 11 24 21 17 16 15 16 19 17 16 16
20 19 18 18 18 18 18 19 22 14 11 3 7 8 14 4 10 13 14 13 14 12 13 12 3 27 25 22 11 6 10 24 8 8 14 10 22 26 17 16 16 17 17 16 15
20 19 18 17 14 15 20 16 6 12 7 9 11 10 15 14 13 12 12 13 11 12 14 17 15 9 5 6 9 14 15 9 8 11 8 9 6 17 16 16 18 16 18 16 17
19 17 16 14 11 10 15 6 6 7 13 12 13 13 3 5 3 8 12 14 13 15 16 18 13 6 11 24 23 29 17 20 29 7 6 6 12 5 18 16 16 19 18 18 19
19 16 15 13 9 6 7 8 8 8 7 23 18 14 4 2 9 15 13 14 13 15 18 16 15 10 11 26 21 18 14 8 24 22 11 19 13 10 8 18 17 20 19 21 20
18 15 12 11 8 6 11 6 7 8 8 13 17 16 15 15 16 17 16 16 20 21 20 20 15 12 17 37 31 17 15 9 11 13 5 3 10 20 20 12 17 18 21 20 22
18 15 11 8 4 11 8 3 7 5 8 14 12 11 13 7 17 17 23 16 19 22 22 24 13 17 21 35 19 19 16 11 11 15 14 12 6 8 13 15 12 20 20 20 22
19 15 9 4 12 7 6 7 7 7 7 12 14 6 6 14 17 13 23 21 19 20 23 21 24 22 19 21 13 15 17 16 17 18 20 8 8 5 5 7 27 30 20 21 21
19 14 12 6 7 7 8 9 8 8 1 7 7 10 12 15 15 15 4 13 18 20 21 25 25 27 25 24 13 15 18 18 23 18 16 5 19 12 1 23 33 32 21 20 22
20 14 8 10 8 9 9 8 8 9 3 4 1 3 11 9 8 12 13 12 12 15 17 22 24 24 22 25 22 16 17 14 15 14 7 16 3 4 22 19 21 24 20 20 19
19 13 10 9 8 7 8 9 12 4 9 7 6 8 11 12 3 6 10 12 16 20 15 16 16 19 16 24 23 19 17 14 20 17 4 8 5 7 18 20 4 9 13 20 21
19 7 7 5 2 6 8 9 5 11 13 11 14 14 12 13 6 10 11 13 15 10 11 13 20 23 22 7 15 18 16 18 22 21 19 8 7 6 23 20 10 9 5 20 19
6 10 7 4 1 7 7 13 5 8 10 10 12 12 11 15 7 6 14 10 8 6 7 14 17 19 24 20 8 12 14 13 9 18 18 15 6 9 25 16 10 4 9 17 17
7 7 6 5 5 7 10 6 5 7 6 8 13 15 15 15 16 15 12 18 5 8 11 14 18 18 19 17 18 6 11 16 15 11 14 15 8 9 11 10 7 12 10 11 17
8 6 5 5 8 5 4 7 2 5 7 5 6 11 10 13 12 15 16 10 12 13 11 16 18 18 22 22 23 19 19 19 10 12 9 13 17 5 11 3 2 14 11 13 7
8 4 6 7 6 5 7 8 2 6 11 9 10 13 13 12 14 11 16 14 4 8 10 11 8 14 16 17 20 19 19 12 15 18 18 11 13 16 4 11 3 9 7 9 11
7 5 5 1 6 11 10 9 7 3 5 6 12 12 11 12 13 14 17 17 6 8 9 1 13 19 16 21 25 25 25 23 19 13 17 18 15 17 7 5 12 9 5 9 9
5 5 8 7 8 9 10 8 8 8 11 12 6 9 12 11 13 14 16 18 20 0 8 8 17 19 20 23 24 28 25 25 24 20 19 20 20 8 8 19 8 5 6 5 7
8 6 10 12 10 9 3 10 8 11 10 12 13 13 12 13 14 18 18 17 17 18 19 18 20 22 25 23 23 26 28 25 26 25 23 23 25 22 14 13 14 9 13 5 4
8 9 8 10 7 8 8 10 12 12 6 9 8 12 13 14 14 15 17 19 20 21 20 20 17 18 22 20 22 26 22 25 25 25 25 23 24 22 23 19 11 12 8 8 7
Wind_Direction
348 347 342 342 340 334 332 332 328 324 322 319 317 314 310 309 295 241 247 259 173 171 193 220 225 236 224 247 248 351 297 153 196 157 201 124 133 136 75 4 64 97 143 146 144
344 341 339 336 335 333 327 327 324 320 319 316 313 312 311 314 275 257 183 119 138 160 205 215 217 233 253 214 94 244 284 275 55 186 132 131 157 80 67 326 276 82 124 137 158
339 337 334 332 330 329 324 321 321 316 314 311 308 308 302 288 274 148 166 144 170 185 231 310 22 28 349 13 214 179 239 276 54 25 352 90 168 131 107 231 246 136 140 142 166
334 333 330 327 325 324 322 318 317 316 313 309 304 302 299 253 357 109 162 157 177 210 240 103 57 347 321 290 325 204 257 40 207 123 154 112 83 205 143 197 196 165 142 159 169
330 327 325 322 320 318 317 316 313 313 310 306 299 291 260 237 246 133 149 145 177 212 246 129 149 187 181 225 215 195 262 307 111 154 241 102 126 68 108 114 158 132 149 167 175
325 322 319 318 316 314 313 314 313 310 306 299 286 264 249 270 99 149 171 168 190 215 249 272 188 254 290 232 88 358 29 340 311 184 194 197 164 186 113 143 134 142 157 169 182
323 320 318 315 314 313 313 311 310 307 300 295 265 247 260 265 132 166 185 196 216 238 276 307 331 305 316 20 47 83 59 286 290 258 184 191 171 173 129 146 145 153 164 175 177
322 317 314 312 310 310 309 307 306 301 298 294 225 243 273 130 258 181 200 219 240 264 268 286 303 51 37 313 3 49 144 256 255 202 114 77 296 281 142 154 156 160 175 176 183
318 313 308 306 307 306 305 303 298 290 289 225 224 236 268 118 219 207 214 234 235 252 261 272 31 82 74 300 313 246 220 208 125 172 138 176 195 230 156 162 164 172 180 180 183
319 311 305 302 303 304 304 287 285 304 221 208 263 260 238 231 203 207 214 246 275 269 264 253 250 105 98 197 260 301 201 80 219 164 173 195 230 154 167 173 169 183 181 186 182
317 309 302 299 301 308 315 207 207 201 225 228 201 217 123 88 22 231 207 234 254 262 269 274 305 123 261 195 242 263 60 40 314 297 224 239 222 243 166 183 185 175 191 186 190
320 311 300 296 295 302 280 252 26 341 284 223 249 251 289 175 231 234 204 232 246 254 266 256 275 158 319 309 254 267 103 144 259 285 304 36 356 352 169 181 200 185 185 187 192
326 317 302 296 302 249 231 333 327 318 266 216 214 228 234 218 240 258 193 233 247 266 257 262 276 95 34 305 290 279 95 268 300 305 273 71 333 340 320 298 197 206 183 191 185
333 328 315 313 284 225 207 10 310 318 273 183 200 227 224 242 254 241 252 217 249 256 266 280 280 164 129 268 272 287 334 302 311 307 300 172 192 275 289 319 288 204 194 186 185
336 335 321 267 312 288 355 311 334 259 271 147 147 100 232 199 261 234 220 246 236 264 264 263 271 278 273 260 287 306 328 321 311 297 285 255 191 201 226 61 310 287 199 191 183
332 331 333 200 232 303 310 304 263 235 260 138 146 200 205 216 238 261 203 242 261 251 257 269 276 283 286 292 295 297 298 290 284 269 264 24 70 331 201 205 203 253 200 194 182
325 316 296 313 314 339 305 271 235 256 157 107 332 210 262 259 213 208 222 213 224 243 247 256 260 258 252 265 271 258 267 276 279 280 352 29 94 31 233 241 247 181 190 184 179
319 310 230 262 287 301 280 256 272 45 7 42 310 292 271 285 244 233 250 258 245 226 253 271 280 257 234 230 251 252 259 264 278 293 85 344 1 276 269 258 258 165 174 171 175
315 238 249 247 49 269 264 252 356 15 13 344 314 261 262 232 208 290 280 281 287 10 351 331 311 328 316 299 269 235 237 258 279 287 284 171 236 272 261 218 183 75 126 150 169
297 276 230 324 212 242 250 263 50 28 357 314 302 302 322 332 324 318 297 29 339 9 348 306 296 300 305 312 270 270 304 300 283 286 285 279 236 205 275 221 92 67 127 143 168
250 249 70 336 242 243 251 35 356 43 13 335 338 329 330 323 324 314 311 314 31 331 325 304 290 287 281 288 283 239 234 235 246 250 286 293 296 85 69 26 14 110 17 145 159
307 284 50 313 253 226 356 10 25 307 325 299 293 284 310 332 320 318 312 322 32 356 320 314 312 294 289 298 299 300 257 272 284 231 232 262 279 111 149 61 250 90 35 11 26
298 328 61 295 297 10 49 316 184 340 340 335 319 324 336 316 302 292 301 317 41 358 14 343 303 311 289 258 250 265 274 265 258 285 287 253 270 293 191 124 75 340 57 43 26
280 323 23 33 28 345 8 318 328 121 324 5 316 302 295 305 313 310 296 297 301 271 120 283 275 272 276 288 303 302 303 302 304 252 255 256 263 279 125 178 162 129 45 69 29
356 38 10 315 356 336 313 325 320 330 18 322 297 322 344 322 314 304 316 321 325 75 286 281 277 275 276 283 285 290 291 292 288 287 287 294 298 298 100 91 319 111 78 70 38
358 358 340 281 296 318 265 53 334 356 345 312 304 326 332 308 312 309 313 303 301 299 294 285 279 279 276 279 280 279 276 278 281 282 275 279 282 285 290 137 193 180 144 160 80
11 341 294 293 296 325 22 339 330 324 299 324 316 313 302 314 327 305 291 284 278 282 280 284 287 289 280 293 297 276 273 263 263 264 271 267 274 286 287 289 280 280 169 155 119